Regional Weather Roundup
Issued by NWS

Home | Current Version | Previous Version | Text Only | Print | Product List | Glossary On
Versions: 1 2 3 4 5 6 7 8 9 10 11 12 13 14 15 16 17 18 19 20 21 22 23 24 25 26 27 28 29 30 31 32 33 34 35 36 37 38 39 40 41 42 43 44 45 46 47 48 49 50
000
ASUS44 KBMX 202210
RWRAL

ALABAMA REGIONAL WEATHER ROUNDUP
NATIONAL WEATHER SERVICE BIRMINGHAM AL
500 PM CDT SAT SEP 20 2014

NOTE: "FAIR" INDICATES FEW OR NO CLOUDS BELOW 12,000 FEET
WITH NO SIGNIFICANT WEATHER AND/OR OBSTRUCTIONS TO VISIBILITY.

THE REMARK "TC" DENOTES TEMPERATURE IN DEGREES CELSIUS.

ALZ001>011-014-016>018-020-202300-
NORTH ALABAMA

CITY           SKY/WX    TMP DP  RH WIND       PRES   REMARKS
MUSCLE SHOALS  SUNNY     87  61  41 CALM      30.02F
HUNTSVILLE     MOSUNNY   86  61  42 SE8       30.02F
DECATUR        SUNNY     86  60  41 VRB5      30.02F
HALEYVILLE     FAIR      85  62  45 CALM      30.05F
GADSDEN        MOSUNNY   84  59  42 E6        30.02S
$$

ALZ012-013-022-023-030>036-040>044-202300-
WEST CENTRAL ALABAMA

CITY           SKY/WX    TMP DP  RH WIND       PRES   REMARKS
TUSCALOOSA     SUNNY     88  60  38 E9        29.98F
$$

ALZ015-024>027-033>036-040>044-202300-
CENTRAL ALABAMA

CITY           SKY/WX    TMP DP  RH WIND       PRES   REMARKS
BIRMINGHAM     MOSUNNY   81  61  50 E5        30.04F
MONTGOMERY     PTSUNNY   82  63  52 E8        30.00F
SHELBY CO ARPT MOSUNNY   84  63  49 CALM      30.01F
MAXWELL AFB    SUNNY     83  65  53 E7        30.00F
GREENVILLE     FAIR      81  64  56 NE7       30.00S
$$

ALZ019-021-028-029-037-038-045>048-202300-
EAST CENTRAL ALABAMA

CITY           SKY/WX    TMP DP  RH WIND       PRES   REMARKS
ANNISTON       SUNNY     83  62  49 E8        30.02F
ALEXANDER CITY MOSUNNY   82  65  57 CALM      30.03S
AUBURN         SUNNY     81  61  50 NE9       30.05F
$$

ALZ051>064-202300-
SOUTHWEST ALABAMA

CITY           SKY/WX    TMP DP  RH WIND       PRES   REMARKS
MOBILE         MOSUNNY   83  68  60 NE6       29.96F
BROOKLEY FIELD MOSUNNY   83  68  60 NE7       29.96F
EVERGREEN      MOSUNNY   83  67  58 NE8       29.99F
$$

ALZ049-050-065>069-202300-
SOUTHEAST ALABAMA

CITY           SKY/WX    TMP DP  RH WIND       PRES   REMARKS
DOTHAN         CLOUDY    80  66  62 NE7       30.01S
OZARK          CLOUDY    81  66  60 N8        29.97F
TROY           MOSUNNY   82  65  56 NE5       30.00F
EUFAULA        FAIR      83  65  54 NE3       29.97F
$$


USA.gov is the U.S. government's official web portal to all federal, state and local government web resources and services.